Weather History for KTVL - December, 2011

Change the Weather History Date:

Saturday, December 24, 2011

  Actual Average Record
Temperature  
Mean Temperature 27 °F 29 °F  
Max Temperature 48 °F 43 °F 50 °F (2010)
Min Temperature 5 °F 16 °F -13 °F (1970)
Degree Days  
Heating Degree Days 38 36  
Month to date heating degree days 828 840  
Since 1 July heating degree days 2614 2933  
Cooling Degree Days 0 0  
Month to date cooling degree days 0 0  
Year to date cooling degree days 19 31  
Moisture  
Dew Point 1 °F    
Average Humidity 41    
Maximum Humidity 69    
Minimum Humidity 13    
Precipitation  
Precipitation 0.00 in - 3.00 in (1964)
Month to date precipitation T  
Year to date precipitation 15.57  
Snow  
Snow 0.00 in - - ()
Month to date snowfall T  
Snow Depth 0.00 in    
Sea Level Pressure  
Sea Level Pressure 30.63 in    
Wind  
Wind Speed 2 mph (SSW)    
Max Wind Speed 7 mph    
Max Gust Speed 10 mph    
Visibility 9 miles    
Events      
T = Trace of Precipitation, MM = Missing Value Source: NWS Daily Summary

Daily Weather History Graph

Daily Weather History Graph

Search for Another Location

Airport or City:

Trip Planner

Search our weather history database for the weather conditions in past years. The results will help you decide how hot, cold, wet, or windy it might be!

Date:

Astronomy

Dec. 24, 2011 Rise Set
Actual Time 7:16 AM PST 4:42 PM PST
Civil Twilight 6:46 AM PST 5:12 PM PST
Nautical Twilight 6:12 AM PST 5:46 PM PST
Astronomical Twilight 5:40 AM PST 6:18 PM PST
Moon 7:09 AM PST (12/24) 5:01 PM PST (12/24)
Length of Visible Light 10h 26m
Length of Day
9h 26m
New Moon, 0% of the Moon is Illuminated
Dec 24
New Moon
Dec 31
First Quarter
Jan 8
Full
Jan 16
Last Quarter
Jan 22
New

Hourly Weather History & Observations

Time (PST) Temp. Windchill Dew Point Humidity Pressure Visibility Wind Dir Wind Speed Gust Speed Precip Events Conditions
12:53 AM 12.9 °F - 1.9 °F 62% 30.64 in 8.0 mi Calm Calm - N/A   Clear
1:53 AM 12.0 °F - 1.0 °F 61% 30.64 in 7.0 mi Calm Calm - N/A   Clear
2:53 AM 10.0 °F 3.6 °F -0.0 °F 64% 30.65 in 7.0 mi SSW 3.5 mph - N/A   Clear
3:53 AM 9.0 °F 0.6 °F -0.0 °F 67% 30.66 in 7.0 mi South 4.6 mph - N/A   Clear
4:53 AM 8.1 °F - -0.9 °F 67% 30.70 in 7.0 mi Calm Calm - N/A   Clear
5:53 AM 7.0 °F -1.7 °F -2.0 °F 67% 30.73 in 8.0 mi South 4.6 mph - N/A   Clear
6:53 AM 6.1 °F -0.9 °F -2.0 °F 69% 30.76 in 9.0 mi SSW 3.5 mph - N/A   Clear
7:53 AM 6.1 °F -0.9 °F -2.0 °F 69% 30.76 in 9.0 mi South 3.5 mph - N/A   Clear
8:53 AM 19.0 °F 13.9 °F 1.0 °F 46% 30.71 in 10.0 mi SSW 3.5 mph - N/A   Clear
9:53 AM 28.9 °F - 3.0 °F 33% 30.69 in 10.0 mi Calm Calm - N/A   Clear
10:53 AM 41.0 °F - -0.9 °F 17% 30.61 in 10.0 mi Calm Calm - N/A   Clear
11:53 AM 46.0 °F - 3.0 °F 17% 30.57 in 10.0 mi Calm Calm - N/A   Clear
12:53 PM 46.9 °F - -0.9 °F 14% 30.55 in 10.0 mi Variable 4.6 mph - N/A   Clear
1:53 PM 46.9 °F - 3.0 °F 16% 30.52 in 10.0 mi Variable 4.6 mph - N/A   Clear
2:53 PM 48.0 °F - -0.9 °F 13% 30.52 in 10.0 mi Calm Calm - N/A   Clear
3:53 PM 39.2 °F - 1.4 °F 21% 30.48 in 10.0 mi Calm Calm - N/A   Clear
4:53 PM 33.1 °F - -0.9 °F 23% 30.59 in 10.0 mi Calm Calm - N/A   Clear
5:53 PM 27.0 °F 23.0 °F -0.9 °F 30% 30.64 in 10.0 mi SSW 3.5 mph - N/A   Clear
6:53 PM 25.0 °F 20.7 °F 3.0 °F 39% 30.66 in 10.0 mi South 3.5 mph - N/A   Clear
7:53 PM 24.1 °F 18.2 °F 3.0 °F 40% 30.67 in 10.0 mi SSW 4.6 mph - N/A   Clear
8:53 PM 21.0 °F - 3.0 °F 46% 30.61 in 9.0 mi Calm Calm - N/A   Clear
9:53 PM 19.0 °F 13.9 °F 1.9 °F 47% 30.59 in 9.0 mi SSW 3.5 mph - N/A   Clear
10:53 PM 18.0 °F - 1.9 °F 50% 30.54 in 9.0 mi Calm Calm - N/A   Clear
11:53 PM 17.1 °F 11.7 °F 1.9 °F 52% 30.52 in 8.0 mi SSW 3.5 mph - N/A   Clear